Weather History for Beckley, WV

Change the Weather History Date:

Wednesday, August 27, 2014

  Actual Average Record
Temperature  
Mean Temperature 69 °F 69 °F  
Max Temperature 83 °F 78 °F 93 °F (1948)
Min Temperature 54 °F 59 °F 38 °F (1923)
Degree Days  
Heating Degree Days 0 1  
Month to date heating degree days 7 3  
Since 1 June heating degree days 41 50  
Since 1 July heating degree days 29 11  
Cooling Degree Days 4 4  
Month to date cooling degree days 94 147  
Year to date cooling degree days 491 480  
Since 1 June cooling degree days 416 439  
Growing Degree Days 18 (Base 50)    
Moisture  
Dew Point 58 °F    
Average Humidity 70    
Maximum Humidity 93    
Minimum Humidity 47    
Precipitation  
Precipitation 0.00 in 0.09 in 0.70 in (1951)
Month to date precipitation 4.01 3.13  
Year to date precipitation 24.40 29.32  
Snow  
Snow 0.00 in - - ()
Month to date snowfall 0.0  
Since 1 September snowfall 76.3  
Snow Depth 0.00 in    
Sea Level Pressure  
Sea Level Pressure 30.09 in    
Wind  
Wind Speed 3 mph (NNW)    
Max Wind Speed 10 mph    
Max Gust Speed 13 mph    
Visibility 10 miles    
Events      
T = Trace of Precipitation, MM = Missing Value Source: NWS Daily Summary

Daily Weather History Graph

Daily Weather History Graph

Search for Another Location

Airport:

Trip Planner

Search our weather history database for the weather conditions in past years. The results will help you decide how hot, cold, wet, or windy it might be!

Date:

Astronomy

Aug. 27, 2014 Rise Set
Actual Time 6:50 AM EDT 8:01 PM EDT
Civil Twilight 6:23 AM EDT 8:28 PM EDT
Nautical Twilight 5:50 AM EDT 9:00 PM EDT
Astronomical Twilight 5:16 AM EDT 9:34 PM EDT
Moon 8:42 AM EDT (8/27) 8:55 PM EDT (8/27)
Length of Visible Light 14h 05m
Length of Day
13h 10m
Waxing Crescent, 4% of the Moon is Illuminated
Aug 27
Waxing Crescent
Sep 2
First Quarter
Sep 8
Full
Sep 15
Last Quarter
Sep 24
New

Hourly Weather History & Observations

Time (EDT) Temp. Heat Index Dew Point Humidity Pressure Visibility Wind Dir Wind Speed Gust Speed Precip Events Conditions
12:51 AM 62.1 °F - 54.0 °F 75% 30.11 in 10.0 mi SSE 6.9 mph - N/A   Clear
1:51 AM 60.8 °F - 53.6 °F 77% 30.18 in 10.0 mi Calm Calm - N/A   Clear
2:51 AM 59.0 °F - 54.0 °F 83% 30.09 in 10.0 mi Calm Calm - N/A   Clear
3:51 AM 57.0 °F - 53.1 °F 87% 30.09 in 10.0 mi Calm Calm - N/A   Clear
4:51 AM 55.0 °F - 52.0 °F 89% 30.10 in 10.0 mi SE 3.5 mph - N/A   Clear
5:51 AM 54.0 °F - 52.0 °F 93% 30.11 in 10.0 mi Calm Calm - N/A   Clear
6:51 AM 55.0 °F - 52.0 °F 89% 30.12 in 10.0 mi Calm Calm - N/A   Clear
7:51 AM 59.0 °F - 55.0 °F 87% 30.12 in 10.0 mi Calm Calm - N/A   Clear
8:51 AM 66.0 °F - 57.9 °F 75% 30.13 in 10.0 mi Calm Calm - N/A   Clear
9:51 AM 72.0 °F - 55.0 °F 55% 30.12 in 10.0 mi Variable 3.5 mph - N/A   Clear
10:51 AM 73.9 °F - 55.9 °F 53% 30.12 in 10.0 mi Variable 5.8 mph - N/A   Clear
11:51 AM 75.9 °F - 57.0 °F 52% 30.12 in 10.0 mi NNE 6.9 mph - N/A   Clear
12:51 PM 77.0 °F - 59.0 °F 54% 30.10 in 10.0 mi Variable 4.6 mph - N/A   Clear
1:51 PM 79.0 °F - 60.1 °F 52% 30.08 in 10.0 mi North 5.8 mph - N/A   Clear
2:51 PM 81.0 °F 81.6 °F 60.1 °F 49% 30.07 in 10.0 mi NW 5.8 mph - N/A   Clear
3:51 PM 82.9 °F 83.7 °F 62.1 °F 49% 30.05 in 10.0 mi Variable 6.9 mph - N/A   Clear
4:51 PM 82.0 °F 82.4 °F 60.1 °F 47% 30.04 in 10.0 mi NNW 10.4 mph - N/A   Clear
5:51 PM 82.0 °F 83.0 °F 62.1 °F 51% 30.04 in 10.0 mi North 8.1 mph - N/A   Clear
6:51 PM 80.1 °F 81.2 °F 62.1 °F 54% 30.03 in 10.0 mi NNW 6.9 mph - N/A   Clear
7:51 PM 75.9 °F - 63.0 °F 64% 30.02 in 10.0 mi NNW 4.6 mph - N/A   Clear
8:51 PM 73.0 °F - 64.0 °F 73% 30.03 in 10.0 mi WNW 3.5 mph - N/A   Clear
9:51 PM 69.1 °F - 64.0 °F 84% 30.05 in 10.0 mi Calm Calm - N/A   Clear
10:51 PM 69.8 °F - 64.4 °F 83% 30.14 in 10.0 mi Calm Calm - N/A   Clear
11:51 PM 68.0 °F - 64.0 °F 87% 30.02 in 10.0 mi Calm Calm - N/A   Clear